Home   Weather   Kirchdorf an der Krems   Past weeks

Flag for Austria Past Weather in Kirchdorf an der Krems, Upper Austria, Austria — Yesterday and Last 2 Weeks

Now
21 °F

Cold.


Feels Like: 21 °F
Forecast: 8 / 24 °F
Wind: 1 mph from East

Location: Kremsmuenster

Current Time: Jan 23, 2017 at 1:52:43 pm

Latest Report: Jan 23, 2017 at 1:00 pm


Visibility: N/A

Pressure: 30.32 "Hg

Humidity: 81%

Dew Point: 16 °F

Location of Kirchdorf an der KremsLocation

Past Weather in Kirchdorf an der Krems — Graph

°F

Kirchdorf an der Krems Temperature Yesterday

Maximum temperature yesterday: 24 °F (at 3:00 pm)
Minimum temperature yesterday: 9 °F (at 6:00 am)
Average temperature yesterday: 15 °F

High & Low Weather Summary for the Past Weeks

 TemperatureHumidityPressure
High40 °F (Jan 12, 4:00 pm)93% (Jan 13, 4:00 am)30.70 "Hg (Jan 13, 4:00 am)
Low9 °F (Jan 20, 5:00 am)54% (Jan 13, 1:00 pm)29.41 "Hg (Jan 13, 4:00 am)
Average24 °F82%30.26 "Hg
* Reported Jan 8 1:00 pm — Jan 23 12:00 pm, Kirchdorf an der Krems, Weather by CustomWeather, © 2017

Note: Actual official high and low records may vary slightly from our data, if they occured in-between our weather recording intervals... More about our weather records

Advertising

Kirchdorf an der Krems Weather History for the Previous 24 Hours

Scroll right to see more
 ConditionsComfort  
Time TempWeatherWind HumidityBarometerVisibility
12:00 pm
Mon, Jan 23
19 °FCold.1 mph85%30.34 "HgN/A
11:00 am16 °FCold.No wind86%30.36 "HgN/A
10:00 am12 °FFog.1 mph88%30.37 "Hg1 mi
9:00 am10 °FFrigid.1 mph88%30.37 "HgN/A
8:00 am10 °FCold.3 mph88%30.37 "HgN/A
7:00 am12 °FFog.2 mph86%30.36 "Hg1 mi
6:00 am14 °FCold.5 mph87%30.34 "HgN/A
5:00 am13 °FCold.2 mph85%30.36 "HgN/A
4:00 am16 °FCold.5 mph88%30.34 "HgN/A
3:00 am17 °FCold.3 mph89%30.34 "HgN/A
2:00 am16 °FCold.5 mph88%30.33 "HgN/A
1:00 am17 °FCold.3 mph88%30.33 "HgN/A
12:00 am17 °FCold.1 mph88%30.33 "HgN/A
11:00 pm
Sun, Jan 22
17 °FCold.5 mph87%30.33 "HgN/A
10:00 pm18 °FCold.5 mph86%30.32 "HgN/A
9:00 pm17 °FCold.6 mph85%30.33 "HgN/A
8:00 pm19 °FCold.3 mph83%30.32 "HgN/A
7:00 pm20 °FFog.5 mph81%30.32 "Hg2 mi
6:00 pm21 °FCold.5 mph79%30.32 "HgN/A
5:00 pm22 °FCold.5 mph77%30.31 "HgN/A
4:00 pm24 °FFog.1 mph76%30.32 "Hg2 mi
3:00 pm24 °FCold.1 mph77%30.33 "HgN/A
2:00 pm21 °FCold.1 mph84%30.35 "HgN/A
1:00 pm19 °FCold.1 mph85%30.38 "HgN/A
Weather by CustomWeather, © 2017

See weather overviewHow to use our weather pages